Location: Anan
(43.3550°N, 0.8171°E)
Time: 05:40:01
(UTC+00:00)

BREEZE-M DEB (TANK) - Pass Details

Date: 14 May 2026
Orbit: 262 x 12018 km, 49.5° (Epoch: 6 June)

Event Time Altitude Azimuth Distance (km) Brightness Sun altitude
Rises 22:01:03 0° 286° (WNW) 2,500 6.3 -22.7°
Reaches altitude 10° 22:03:50 10° 308° (NW) 1,198 5.0 -23.0°
Enters shadow 22:04:56 16° 336° (NNW) 830 4.2 -23.1°
